Regional Weather Roundup
Issued by NWS

Home | Current Version | Previous Version | Graphics & Text | Print | Product List | Glossary Off
Versions: 1 2 3 4 5 6 7 8 9 10 11 12 13 14 15 16 17 18 19 20 21 22 23 24 25 26 27 28 29 30 31 32 33 34 35 36 37 38 39 40 41 42 43 44 45 46 47 48 49 50

000
ASUS43 KMPX 161710
RWRMN
WEATHER ROUNDUP FOR MINNESOTA
NATIONAL WEATHER SERVICE TWIN CITIES/CHANHASSEN MN
1100 AM CST SAT DEC 16 2017


NOTE: "FAIR" INDICATES FEW OR NO CLOUDS BELOW 12,000 FEET WITH NO
SIGNIFICANT WEATHER AND/OR OBSTRUCTIONS TO VISIBILITY. N/A MEANS
CURRENT SKY AND/OR WEATHER CONDITIONS ARE NOT AVAILABLE.

MNZ060>063-068>070-161800-
   Twin Cities Metro

CITY           SKY/WX    TMP DP  RH WIND       PRES   REMARKS
TWIN CITIES    CLOUDY    28  25  88 E7        29.87R WCI  21
ST PAUL        CLOUDY    27  23  85 E8        29.88R WCI  19
CRYSTAL        CLOUDY    26  20  77 E8        29.86R WCI  18
BLAINE         PTSUNNY   28  25  86 E8        29.86R WCI  20
LAKEVILLE      CLOUDY    27  27 100 NE7       29.85R FOG     WCI  19
EDEN PRAIRIE   CLOUDY    29  24  82 E8        29.84R HAZE    WCI  21
SOUTH ST PAUL  MOSUNNY   28  24  86 E6        29.87R WCI  22
LAKE ELMO      CLOUDY    27  23  86 E7        29.88R WCI  19
$$
MNZ001>005-007-008-013>017-022>024-027-028-161800-
   Northwest Minnesota

CITY           SKY/WX    TMP DP  RH WIND       PRES   REMARKS
BEMIDJI        CLOUDY    18  15  88 SE8       29.87R WCI   7
HALLOCK        CLOUDY    18  16  93 SE7       29.89R WCI   8
ROSEAU         CLOUDY    12   9  85 E9        29.89S FOG     WCI   0
WARROAD        CLOUDY     9   5  85 E8        29.90R WCI  -4
THIEF RVR FALL CLOUDY    20  17  88 SE6       29.88R WCI  12
CROOKSTON      CLOUDY    25  21  86 S7        29.89R WCI  17
FOSSTON        CLOUDY    21  18  86 S6        29.87R WCI  14
DETROIT LAKES  CLOUDY    25  23  93 SE5       29.88R WCI  19
MOORHEAD       CLOUDY    27  21  80 CALM      29.90R
PARK RAPIDS    CLOUDY    20  16  84 E3        29.87R
MAHNOMEN       CLOUDY    24  20  85 S5        29.87R WCI  18
$$
MNZ006-009>011-018-025>026-161800-
   North Central Minnesota

CITY           SKY/WX    TMP DP  RH WIND       PRES   REMARKS
BAUDETTE       LGT SNOW   7   2  80 E9        29.91R WCI  -7
FLAG ISLAND    FLURRIES   3   0  85 SE5       29.92R WCI  -6
INTL FALLS     HVY SNOW   2  -3  80 E7        29.95S VSB 1/4 WCI -11
WASKISH        CLOUDY    12  10  92 E9        29.89S WCI   0
BIG FORK       MIX PCPN  12   9  85 E3        29.90S
LONGVILLE      CLOUDY    19  12  73 E5        29.89R WCI  13
GRAND RAPIDS   FLURRIES  18  13  80 SE6       29.92R WCI  10
CRANE LAKE     FLURRIES   3   0  85 CALM      30.00S
ORR            LGT SNOW   9   3  78 CALM      29.90S
COOK           FLURRIES   9   5  85 E5        29.94R WCI   0
WALKER         CLOUDY    19  14  82 SE5       29.88R WCI  12
$$
MNZ012-019>021-037-161800-
   Northeast Minnesota

CITY           SKY/WX    TMP DP  RH WIND       PRES   REMARKS
DULUTH         CLOUDY    18  11  74 E17       29.91R WCI   3
ELY            FLURRIES   7   1  78 CALM      29.95S
HIBBING        LGT SNOW  19  15  84 SE9       29.91R FOG     WCI   8
EVELETH        FLURRIES  20  14  77 SE7       29.92R WCI  11
DULUTH HARBOR  CLOUDY    23  14  68 E12G17    29.98S WCI  12
TWO HARBORS    CLOUDY    25  18  74 E9G16     29.94S HAZE    WCI  15
SILVER BAY     LGT SNOW  21  18  86 SE5       29.96R WCI  15
GRAND MARAIS     N/A     14   7  73 NE10G18   30.04R WCI   1
G MARAIS ARPRT FLURRIES   3   0  85 NE6       29.94R WCI  -8
$$
MNZ029>031-032-039>041-046>048-054>057-064-161800-
   West Central Minnesota

CITY           SKY/WX    TMP DP  RH WIND       PRES   REMARKS
FERGUS FALLS   CLOUDY    27  21  80 S5        29.92R WCI  21
WHEATON        CLOUDY    28  27  93 CALM      29.91R
MORRIS         PTSUNNY   28  25  86 CALM      29.87R
ALEXANDRIA     CLOUDY    24  22  91 SE3       29.88R FOG
ELBOW LAKE     CLOUDY    26  23  89 SE5       29.88R FOG     WCI  20
WADENA         CLOUDY    21  18  86 CALM      29.87R
GLENWOOD       PTSUNNY   25  23  93 CALM      29.88R FOG
APPLETON         N/A     30  27  86 CALM      29.87R
BENSON         MOSUNNY   28  25  86 CALM      29.89R
ORTONVILLE     MOSUNNY   32  28  86 N9        29.87R WCI  24
MADISON        MOSUNNY   37  34  87 N10       29.87R
WILLMAR        FAIR      28  27  93 CALM      29.88R
$$
MNZ033>034-036-042>043-049>051-058-059-161800-
   Central Minnesota

CITY           SKY/WX    TMP DP  RH WIND       PRES   REMARKS
ST CLOUD       CLOUDY    23  19  85 NE7       29.87R WCI  15
SAUK CENTRE    CLOUDY    23  21  92 CALM      29.88R FOG
PAYNESVILLE    CLOUDY    25  24  95 CALM      29.88R
AITKIN         CLOUDY    21  12  68 NE7       29.87R WCI  13
PINE RIVER     CLOUDY    19  12  73 E5        29.93R WCI  13
BRAINERD       CLOUDY    22  16  78 VRB6      29.88R WCI  14
STAPLES        CLOUDY    21  18  86 CALM      29.88R
LITTLE FALLS   CLOUDY    23  18  80 CALM      29.88R
LITCHFIELD     CLOUDY    27  27 100 NE3       29.86R
BUFFALO        CLOUDY    27  23  85 NE7       29.88R WCI  19
MAPLE LAKE     CLOUDY    27  24  87 NE7       29.87R WCI  20
HUTCHINSON     PTSUNNY   29  26  88 N5        29.87R WCI  24
$$
MNZ037-044-045-052-053-161800-
   East Central Minnesota

CITY           SKY/WX    TMP DP  RH WIND       PRES   REMARKS
PRINCETON      CLOUDY    25  19  80 NE7       29.88R WCI  17
MORA           FLURRIES  23  18  80 E7        29.91R WCI  15
CAMBRIDGE      CLOUDY    25  16  68 NE3       29.89R
RUSH CITY      CLOUDY    23  17  78 NE7       29.91R WCI  15
MOOSE LAKE     CLOUDY    21  10  63 CALM      29.88F
HINCKLEY       FLURRIES  23  18  80 E7        29.90S WCI  15
CLOQUET        CLOUDY    19   7  58 E7        29.90S WCI  10
MCGREGOR       CLOUDY    23  10  58 E10       29.88S WCI  12
$$
MNZ071>073-080-081-089-090-097-098-161800-
   Southwest Minnesota

CITY           SKY/WX    TMP DP  RH WIND       PRES   REMARKS
MONTEVIDEO     MOSUNNY   34  32  93 CALM      29.87R
GRANITE FALLS  MOSUNNY   35  30  84 N3        29.88R
CANBY          MOSUNNY   40  32  72 NW10      29.87R
MARSHALL       CLOUDY    38  30  73 N14       29.85R
REDWOOD FALLS  CLOUDY    32  29  88 NE6       29.86R FOG     WCI  26
OLIVIA         MOSUNNY   30  28  93 NE6       29.85R WCI  24
PIPESTONE      CLOUDY    36  28  75 N7        29.82S
WINDOM           N/A     39  25  56 NW13      29.83R
WORTHINGTON    CLOUDY    40  30  67 N14       29.83R
JACKSON        CLOUDY    37  30  75 NW13      29.82S
TRACY          PTSUNNY   37  32  81 N10       29.84R
SLAYTON        MOSUNNY   39  31  72 N13       29.84R
$$
MNZ065>067-074>077-082>085-091>093-161800-
   South Central Minnesota

CITY           SKY/WX    TMP DP  RH WIND       PRES   REMARKS
MANKATO        CLOUDY    34  27  75 NE5       29.85R WCI  30
NEW ULM        CLOUDY    30  28  93 N3        29.85R
ST JAMES       MOSUNNY   36  28  75 NW6       29.85R
FAIRMONT       MOSUNNY   37  29  72 NW12      29.83R
GLENCOE        MOSUNNY   30  30  99 NE5       29.85R FOG     WCI  25
FARIBAULT      MOSUNNY   32  27  80 NE5       29.84R WCI  27
OWATONNA       SUNNY     36  27  69 CALM      29.83R
WASECA         SUNNY     36  30  80 CALM      29.84R
ALBERT LEA     CLOUDY    34  25  69 CALM      29.80S
$$
MNZ078>079-086>088-094>096-161800-
   Southeast Minnesota

CITY           SKY/WX    TMP DP  RH WIND       PRES   REMARKS
ROCHESTER      SUNNY     32  26  78 SE6       29.82R WCI  26
RED WING       CLOUDY    28  23  80 E9        29.86R WCI  20
STANTON        CLOUDY    31  27  84 E5        29.83S WCI  26
DODGE CENTER   SUNNY     32  27  80 CALM      29.82R
WINONA         CLOUDY    30  27  86 SE9       29.89R WCI  22
AUSTIN         CLOUDY    34  25  69 CALM      29.81R
PRESTON        CLOUDY    33  25  72 CALM      29.82R
$$
ABBREVIATIONS USED IN REMARKS
   TC - TEMPERATURES IN CELSIUS
  WCI - WIND CHILL INDEX
   HX - HEAT INDEX
  VSB - VISIBILITY
$$



USA.gov is the U.S. government's official web portal to all federal, state and local government web resources and services.